FW8074 Weather Reports


Display with metric or nautical units.
time (UTC)temp
F
wind
direction
speed
MPH
gust
MPH
rain 1hr
in
rain 24hr
in
rain mn
in
humidity
%
barometer
mb
20260901040115 76 0 0.0 0.0 0.00 0.00 0.00 94 1016.1
20260901034610 76 0 0.0 0.0 0.00 0.00 0.00 94 1016.0
20260901033107 76 0 0.0 0.0 0.00 0.00 0.00 94 1016.1
20260901031559 76 0 0.0 0.0 0.00 0.00 0.00 94 1016.0
20260901030105 76 0 0.0 0.0 0.00 0.00 0.00 94 1016.2
20260901024601 76 0 0.0 0.0 0.00 0.00 0.00 94 1016.0
20260901023109 77 0 0.0 0.0 0.00 0.00 0.00 94 1015.8
20260901021604 77 0 0.0 0.0 0.00 0.00 0.00 95 1015.8
20260901020104 78 0 0.0 0.0 0.00 0.00 0.00 94 1015.7
20260901014602 78 0 0.0 0.0 0.00 0.00 0.00 93 1015.3
20260901013101 78 0 0.0 0.0 0.00 0.00 0.00 93 1015.2
20260901011609 79 0 0.0 0.0 0.00 0.00 0.00 91 1015.0
20260901010109 79 0 0.0 0.0 0.00 0.00 0.00 90 1014.9
20260901004610 80 0 0.0 0.0 0.00 0.00 0.00 90 1014.7
20260901003101 80 0 0.0 0.0 0.00 0.00 0.00 87 1014.6
20260901001604 81 0 0.0 0.0 0.00 0.00 0.00 85 1014.6
20260901000103 82 0 0.0 0.0 0.00 0.00 0.00 82 1014.6
20260831234601 83 0 0.0 0.0 0.00 0.00 0.00 80 1014.6
20260831233105 84 0 0.0 0.0 0.00 0.00 0.00 79 1014.7
20260831231602 85 0 0.0 0.0 0.00 0.00 0.00 78 1014.8
20260831230113 86 0 0.0 0.0 0.00 0.00 0.00 76 1014.7
20260831224608 87 0 0.0 0.0 0.00 0.00 0.00 74 1014.7
20260831223106 87 0 0.0 0.0 0.00 0.00 0.00 73 1014.6
20260831221605 88 0 0.0 0.0 0.00 0.00 0.00 72 1014.7
20260831220129 89 0 0.0 0.0 0.00 0.00 0.00 66 1014.7
20260831214605 89 0 0.0 0.0 0.00 0.00 0.00 65 1015.0
20260831213123 90 0 0.0 0.0 0.00 0.00 0.00 63 1015.0
20260831211616 90 0 0.0 0.0 0.00 0.00 0.00 64 1014.9
20260831210100 90 0 0.0 0.0 0.00 0.00 0.00 62 1014.9
20260831204604 90 0 0.0 0.0 0.00 0.00 0.00 60 1015.0
20260831203115 90 0 0.0 0.0 0.00 0.00 0.00 57 1015.1
20260831201602 90 0 0.0 0.0 0.00 0.00 0.00 56 1015.2
20260831200101 91 0 0.0 0.0 0.00 0.00 0.00 57 1015.4
20260831194605 90 0 0.0 0.0 0.00 0.00 0.00 62 1015.5
20260831193102 90 0 0.0 0.0 0.00 0.00 0.00 62 1015.6
20260831191600 90 0 0.0 0.0 0.00 0.00 0.00 63 1015.8
20260831190112 90 0 0.0 0.0 0.00 0.00 0.00 64 1015.9
20260831184613 90 0 0.0 0.0 0.00 0.00 0.00 66 1016.0
20260831183101 89 0 0.0 0.0 0.00 0.00 0.00 64 1016.1
20260831181602 90 0 0.0 0.0 0.00 0.00 0.00 64 1016.3
20260831180110 90 0 0.0 0.0 0.00 0.00 0.00 67 1016.5
20260831174607 89 0 0.0 0.0 0.00 0.00 0.00 65 1016.6
20260831173103 90 0 0.0 0.0 0.00 0.00 0.00 67 1016.8
20260831171605 89 0 0.0 0.0 0.00 0.00 0.00 69 1016.9
20260831170106 89 0 0.0 0.0 0.00 0.00 0.00 68 1017.0
20260831164632 88 0 0.0 0.0 0.00 0.00 0.00 72 1017.1
20260831163104 88 0 0.0 0.0 0.00 0.00 0.00 67 1017.2
20260831161607 87 0 0.0 0.0 0.00 0.00 0.00 72 1017.2
20260831160106 86 0 0.0 0.0 0.00 0.00 0.00 74 1017.3
20260831154630 86 0 0.0 0.0 0.00 0.00 0.00 76 1017.3
20260831153106 86 0 0.0 0.0 0.00 0.00 0.00 75 1017.5
20260831151614 85 0 0.0 0.0 0.00 0.00 0.00 75 1017.5
20260831150105 85 0 0.0 0.0 0.00 0.00 0.00 78 1017.3
20260831144625 84 0 0.0 0.0 0.00 0.00 0.00 81 1017.1
20260831143124 83 0 0.0 0.0 0.00 0.00 0.00 82 1017.2
20260831141628 82 0 0.0 0.0 0.00 0.00 0.00 86 1017.3
20260831140106 81 0 0.0 0.0 0.00 0.00 0.00 87 1017.2
20260831134605 79 0 0.0 0.0 0.00 0.00 0.00 92 1017.0
20260831133109 78 0 0.0 0.0 0.00 0.00 0.00 95 1017.0
20260831131602 76 0 0.0 0.0 0.00 0.00 0.00 97 1017.3
20260831130110 75 0 0.0 0.0 0.00 0.00 0.00 99 1017.3
20260831124603 74 0 0.0 0.0 0.00 0.00 0.00 100 1017.2
20260831123107 72 0 0.0 0.0 0.00 0.00 0.00 100 1017.1
20260831121601 71 0 0.0 0.0 0.00 0.00 0.00 100 1017.1
20260831120111 71 0 0.0 0.0 0.00 0.00 0.00 100 1017.0
20260831114605 71 0 0.0 0.0 0.00 0.00 0.00 100 1017.0
20260831113107 71 0 0.0 0.0 0.00 0.00 0.00 100 1016.8
20260831111609 70 0 0.0 0.0 0.00 0.00 0.00 100 1016.6
20260831110107 71 0 0.0 0.0 0.00 0.00 0.00 99 1016.8
20260831104605 70 0 0.0 0.0 0.00 0.00 0.00 99 1016.7
20260831103105 71 0 0.0 0.0 0.00 0.00 0.00 99 1016.7
20260831101609 71 0 0.0 0.0 0.00 0.00 0.00 99 1016.6
20260831100126 71 0 0.0 0.0 0.00 0.00 0.00 99 1016.5
20260831094626 71 0 0.0 0.0 0.00 0.00 0.00 99 1016.5
20260831093107 71 0 0.0 0.0 0.00 0.00 0.00 99 1016.5
20260831091610 71 0 0.0 0.0 0.00 0.00 0.00 99 1016.4
20260831090109 71 0 0.0 0.0 0.00 0.00 0.00 99 1016.4
20260831084611 71 0 0.0 0.0 0.00 0.00 0.00 99 1016.4
20260831083112 71 0 0.0 0.0 0.00 0.00 0.00 99 1016.1
20260831081609 71 0 0.0 0.0 0.00 0.00 0.00 99 1016.1
20260831080107 72 0 0.0 0.0 0.00 0.00 0.00 99 1016.0
20260831074617 72 0 0.0 0.0 0.00 0.00 0.00 99 1016.0
20260831073110 72 0 0.0 0.0 0.00 0.00 0.00 99 1016.2
20260831071605 72 0 0.0 0.0 0.00 0.00 0.00 99 1016.2
20260831070108 72 0 0.0 0.0 0.00 0.00 0.00 99 1016.1
20260831064604 72 0 0.0 0.0 0.00 0.00 0.00 99 1016.3
20260831063105 73 0 0.0 0.0 0.00 0.00 0.00 99 1016.7
20260831061605 73 0 0.0 0.0 0.00 0.00 0.00 99 1016.6
20260831060112 73 0 0.0 0.0 0.00 0.00 0.00 99 1016.6
20260831054607 73 0 0.0 0.0 0.00 0.00 0.00 99 1016.9
20260831053101 73 0 0.0 0.0 0.00 0.00 0.00 99 1017.1
20260831051612 73 0 0.0 0.0 0.00 0.00 0.00 98 1017.1
20260831050115 73 0 0.0 0.0 0.00 0.00 0.00 98 1017.2
20260831044617 73 0 0.0 0.0 0.00 0.00 0.00 98 1017.2
20260831043110 74 0 0.0 0.0 0.00 0.00 0.00 98 1017.1
20260831041603 74 0 0.0 0.0 0.00 0.00 0.00 98 1017.2